Miscellaneous Local Product
Issued by NWS Hastings, NE

Home | Current Version | Previous Version | Graphics & Text | Print | Product List | Glossary On
Versions: 1 2 3 4 5 6 7 8 9 10 11 12 13 14 15 16 17 18 19 20 21 22 23 24 25 26 27 28 29 30 31 32 33 34 35 36 37 38 39 40 41 42 43 44 45 46 47 48 49 50
000
AXUS43 KGID 271702
MISGRI

GID CWA HOURLY WEATHER ROUNDUP
NATIONAL WEATHER SERVICE HASTINGS NE
1200 PM CDT WED AUG 27 2014

NOTE: "FAIR" INDICATES FEW OR NO CLOUDS BELOW 12,000 FEET WITH NO
SIGNIFICANT WEATHER AND/OR OBSTRUCTIONS TO VISIBILITY.

...SOUTH CENTRAL NEBRASKA...

CITY           SKY/WX    TMP DP  RH WIND       PRES   REMARKS
GRAND ISLAND   CLOUDY    71  67  87 E10       30.17S
HASTINGS       CLOUDY    72  65  78 E10       30.16S
KEARNEY        CLOUDY    70  66  88 NE12      30.16F
ORD            CLOUDY    68  65  90 SE9       30.15R
YORK           LGT RAIN  72 N/A N/A SE7       30.16F
AURORA         CLOUDY    70  70 100 E7        30.16F
LEXINGTON      CLOUDY    72  68  87 E9        30.15S
HOLDREGE       LGT RAIN  71  68  91 E7        30.15S
HEBRON         CLOUDY    77  70  78 E8        30.13S

...NEBRASKA PANHANDLE...

CITY           SKY/WX    TMP DP  RH WIND       PRES   REMARKS
CHADRON        CLOUDY    72  61  68 E8        30.10F
ALLIANCE       CLOUDY    73  63  70 SE15G22   30.13S
SCOTTSBLUFF    CLOUDY    71  63  75 E15       30.11S
SIDNEY         PTSUNNY   74  60  61 SE13      30.14F

...WESTERN AND NORTH CENTRAL NEBRASKA...

CITY           SKY/WX    TMP DP  RH WIND       PRES   REMARKS
VALENTINE      CLOUDY    76  67  73 SE7       30.13F
AINSWORTH      CLOUDY    70  65  85 SE9       30.15S
ONEILL         LGT RAIN  69  67  94 E8        30.14F
BROKEN BOW     CLOUDY    71  67  87 E12       30.16R
IMPERIAL       PTSUNNY   74  65  73 S12       30.12F
NORTH PLATTE   CLOUDY    73  67  81 E7        30.13F
MCCOOK         PTSUNNY   75  67  76 SE9       30.13S

...EASTERN NEBRASKA...

CITY           SKY/WX    TMP DP  RH WIND       PRES   REMARKS
NORFOLK        LGT RAIN  68  66  93 SE17      30.12F
SO SIOUX CITY  LGT RAIN  66  64  93 E9        30.16F
TEKAMAH        LGT RAIN  69  67  93 E7        30.15F
COLUMBUS       CLOUDY    66  64  94 E9        30.18R
ALBION         CLOUDY    67  65  93 SE7       30.15F
OMAHA EPPLEY   LGT RAIN  69  66  90 E10       30.17F FOG
OFFUTT AFB     LGT RAIN  70  70 100 E5        30.18R
MILLARD        CLOUDY    71  68  91 SE6       30.16F
LINCOLN        RAIN      70  68  93 NE13      30.17S FOG
NEBRASKA CITY  RAIN      69  69 100 E5        30.17R
BEATRICE       CLOUDY    76  72  86 SE3       30.14S
FALLS CITY     LGT RAIN  70  69  97 SE7       30.14R

...NORTHERN KANSAS...

CITY           SKY/WX    TMP DP  RH WIND       PRES   REMARKS
GOODLAND       CLOUDY    73  65  75 S18       30.13F
HILL CITY      PTSUNNY   79  64  60 VRB6      30.12S
NORTON         PTSUNNY   79  61  53 SE8       30.12S
PHILLIPSBURG   MOSUNNY   81  68  65 E8        30.12S HAZE
SMITH CENTER   SUNNY     77  70  78 S7        30.12F
BELOIT         SUNNY     81  72  74 NE3       30.10S
HAYS           CLOUDY    75  63  64 CALM      30.11S
RUSSELL        CLOUDY    78  64  61 N3        30.10F
CONCORDIA      CLOUDY    79  73  82 SE6       30.12S
SALINA         CLOUDY    84  65  52 CALM      30.11S
TOPEKA         MOSUNNY   84  72  67 E12       30.12F



USA.gov is the U.S. government's official web portal to all federal, state and local government web resources and services.